Location: Ferchesar
(52.6477°N, 12.4298°E)
Time: 09:17:42
(UTC+01:00)

Envisat - Visible Passes

Search period start: 27 January 2021 00:00
Search period end: 06 February 2021 00:00
Orbit: 764 x 766 km, 98.1° (Epoch: 26 January)

Date Brightness Start Highest point End Pass type
(mag) Time Alt. Az. Time Alt. Az. Time Alt. Az.
27 Jan 6.2 04:22:48 10° ENE 04:24:33 12° E 04:26:17 10° ESE visible
27 Jan 3.3 05:59:27 10° NNE 06:04:33 69° ESE 06:09:37 10° S visible
27 Jan 4.0 17:20:06 10° S 17:25:04 53° W 17:30:04 10° NNW visible
28 Jan 4.6 05:22:52 10° NNE 05:27:33 35° E 05:32:12 10° SSE visible
28 Jan 3.4 07:01:53 10° N 07:06:39 41° WNW 07:11:23 10° SW visible
28 Jan 6.0 18:24:28 10° SW 18:27:51 18° W 18:31:15 10° NW visible
29 Jan 5.6 04:46:46 10° NE 04:50:21 19° E 04:53:54 10° SE visible
29 Jan 2.9 06:24:52 10° NNE 06:29:58 77° WNW 06:35:03 10° SSW visible
29 Jan 5.0 17:46:03 10° SSW 17:50:38 33° W 17:55:15 10° NNW visible
30 Jan 3.7 05:48:04 10° NNE 05:53:06 56° E 05:58:06 10° S visible
30 Jan 6.4 18:52:26 10° W 18:53:40 11° W 18:54:54 10° WNW visible
31 Jan 5.0 05:11:36 10° NNE 05:16:03 29° E 05:20:28 10° SSE visible
31 Jan 3.2 06:50:23 10° N 06:55:18 49° WNW 07:00:11 10° SW visible
31 Jan 5.8 18:12:26 10° SW 18:16:18 21° W 18:20:11 10° NW visible
01 Feb 5.9 04:35:47 10° NE 04:38:46 15° E 04:41:45 10° ESE visible
01 Feb 3.0 06:13:26 10° NNE 06:18:34 88° ESE 06:23:39 10° SSW visible
01 Feb 4.6 17:34:21 10° SSW 17:39:07 40° W 17:43:57 10° NNW visible
02 Feb 4.1 05:36:43 10° NNE 05:41:38 46° E 05:46:31 10° S visible
02 Feb 6.2 18:39:35 10° WSW 18:42:04 13° W 18:44:32 10° NW visible
03 Feb 5.3 05:00:23 10° NE 05:04:31 24° E 05:08:38 10° SE visible
03 Feb 3.0 06:38:54 10° N 06:43:56 60° WNW 06:48:55 10° SSW visible
03 Feb 5.5 18:00:32 10° SSW 18:04:45 26° W 18:09:00 10° NW visible
04 Feb 6.1 04:25:01 10° ENE 04:27:11 13° E 04:29:20 10° ESE visible
04 Feb 3.2 06:02:01 10° NNE 06:07:08 74° ESE 06:12:13 10° S visible
05 Feb 4.5 05:25:24 10° NNE 05:30:09 38° E 05:34:52 10° SSE visible
05 Feb 3.5 07:04:29 10° N 07:09:12 39° WNW 07:13:53 10° SW visible
05 Feb 6.0 18:27:17 10° SW 18:30:28 17° W 18:33:41 10° NW visible
